Home   Weather   Carson City   Past weeks

Flag for USA Past Weather in Carson City, Nevada, USA — Yesterday and Last 2 Weeks

Now
36 °F

Partly sunny.


Feels Like: 36 °F
Forecast: 20 / 34 °F
Wind: No wind

Location: Reno Tahoe International Airport

Current Time: Feb 25, 2017 at 3:08:37 pm

Latest Report: Feb 25, 2017 at 1:55 pm


Visibility: 10 mi

Pressure: 30.05 "Hg (25.18 "Hg at 1425m altitude)

Humidity: 54%

Dew Point: 21 °F

Location of Carson CityLocation

Past Weather in Carson City — Graph

°F

Carson City Temperature Yesterday

Maximum temperature yesterday: 39 °F (at 3:55 pm)
Minimum temperature yesterday: 18 °F (at 6:55 am)
Average temperature yesterday: 29 °F

High & Low Weather Summary for the Past Weeks

 TemperatureHumidityPressure
High60 °F (Feb 15, 4:55 pm)100% (Feb 21, 4:25 am)30.45 "Hg (Feb 21, 4:25 am)
Low18 °F (Feb 24, 6:55 am)22% (Feb 15, 9:55 pm)29.34 "Hg (Feb 17, 4:55 pm)
Average39 °F65%29.98 "Hg
* Reported Feb 10 1:55 pm — Feb 25 1:55 pm, Carson City, Weather by CustomWeather, © 2017

Note: Actual official high and low records may vary slightly from our data, if they occured in-between our weather recording intervals... More about our weather records

Advertising

Carson City Weather History for the Previous 24 Hours

Scroll right to see more
 ConditionsComfort  
Time TempWeatherWind HumidityBarometerVisibility
1:55 pm
Sat, Feb 25
36 °FPartly sunny.No wind54%30.05 "Hg10 mi
12:55 pm36 °FPartly sunny.No wind54%30.08 "Hg10 mi
11:55 am33 °FBroken clouds.No wind66%30.11 "Hg10 mi
11:28 am34 °FBroken clouds.No wind64%30.09 "Hg10 mi
10:55 am31 °FPartly sunny.No wind76%30.14 "Hg10 mi
10:25 am30 °FPartly sunny.No wind79%30.10 "Hg10 mi
9:55 am30 °FBroken clouds.No wind82%30.14 "Hg7 mi
9:34 am28 °FLight snow. Ice fog.No wind85%30.11 "Hg5 mi
9:03 am28 °FLight snow. Ice fog.No wind85%30.11 "Hg3 mi
8:31 am27 °FLight snow. Ice fog.6 mph89%30.11 "Hg4 mi
7:55 am27 °FLight snow. Ice fog.6 mph89%30.14 "Hg1 mi
6:55 am27 °FLight snow. Ice fog.7 mph89%30.11 "Hg1 mi
6:34 am27 °FLight snow. Ice fog.7 mph89%30.07 "Hg2 mi
5:55 am29 °FOvercast.6 mph66%30.09 "Hg9 mi
4:55 am30 °FOvercast.3 mph56%30.07 "Hg10 mi
3:55 am30 °FPassing clouds.No wind59%30.06 "Hg10 mi
2:55 am29 °FPassing clouds.6 mph58%30.08 "Hg10 mi
1:55 am29 °FPartly cloudy.6 mph58%30.09 "Hg10 mi
12:55 am29 °FPassing clouds.5 mph58%30.09 "Hg10 mi
11:55 pm
Fri, Feb 24
30 °FPassing clouds.3 mph59%30.10 "Hg10 mi
10:55 pm31 °FPassing clouds.No wind52%30.11 "Hg10 mi
9:55 pm31 °FPassing clouds.6 mph54%30.12 "Hg10 mi
8:55 pm32 °FPassing clouds.10 mph54%30.13 "Hg10 mi
7:55 pm33 °FPassing clouds.9 mph54%30.13 "Hg10 mi
6:55 pm34 °FPassing clouds.7 mph54%30.12 "Hg10 mi
5:55 pm35 °FPassing clouds.10 mph48%30.12 "Hg10 mi
4:55 pm36 °FBroken clouds.5 mph38%30.11 "Hg10 mi
3:55 pm39 °FPartly sunny.5 mph31%30.10 "Hg10 mi
Weather by CustomWeather, © 2017

See weather overviewHow to use our weather pages